Location: Newark
(51.7378°N, 19.8125°E)
Time: 06:41:14
(UTC+00:00)

Envisat - Pass Details

Date: 16 December 2019
Orbit: 764 x 766 km, 98.1° (Epoch: 20 January)

Event Time Altitude Azimuth Distance (km) Brightness Sun altitude
Rises 04:15:08 0° 26° (NNE) 3,246 6.4 -21.3°
Reaches altitude 10° 04:18:12 10° 45° (NE) 2,313 5.9 -20.8°
Maximum altitude 04:21:40 18° 88° (E) 1,807 5.8 -20.3°
Drops below altitude 10° 04:25:06 10° 131° (SE) 2,301 6.4 -19.7°
Sets 04:28:07 0° 150° (SSE) 3,221 6.9 -19.3°
